| time (UTC) | temp F | wind direction | speed MPH | gust MPH | rain 1hr in | rain 24hr in | rain mn in | humidity % | barometer mb |
| 20260503234120 | 54 | 112 | 2.0 | 3.0 | 0.00 | 0.00 | 0.00 | 95 | 1023.3 |
| 20260503233121 | 55 | 121 | 2.0 | 3.0 | 0.00 | 0.00 | 0.00 | 95 | 1023.4 |
| 20260503232121 | 55 | 112 | 3.0 | 4.0 | 0.00 | 0.00 | 0.00 | 95 | 1023.3 |
| 20260503231122 | 55 | 113 | 1.0 | 3.0 | 0.00 | 0.00 | 0.00 | 94 | 1023.2 |
| 20260503230121 | 55 | 142 | 2.0 | 4.0 | 0.00 | 0.00 | 0.00 | 94 | 1023.2 |
| 20260503224121 | 56 | 131 | 4.0 | 7.0 | 0.00 | 0.00 | 0.00 | 94 | 1023.3 |
| 20260503222220 | 56 | 115 | 4.0 | 7.0 | 0.00 | 0.00 | 0.00 | 94 | 1023.5 |
| 20260503222121 | 56 | 118 | 3.0 | 8.0 | 0.00 | 0.00 | 0.00 | 94 | 1023.5 |
| 20260503221121 | 56 | 116 | 4.0 | 7.0 | 0.00 | 0.00 | 0.00 | 93 | 1023.4 |
| 20260503220122 | 56 | 133 | 4.0 | 7.0 | 0.00 | 0.00 | 0.00 | 93 | 1023.2 |
| 20260503215127 | 56 | 118 | 3.0 | 6.0 | 0.00 | 0.00 | 0.00 | 93 | 1023.1 |
| 20260503214128 | 57 | 114 | 3.0 | 4.0 | 0.00 | 0.00 | 0.00 | 93 | 1023.0 |
| 20260503214027 | 57 | 126 | 3.0 | 5.0 | 0.00 | 0.00 | 0.00 | 93 | 1023.0 |
| 20260503213029 | 57 | 132 | 4.0 | 7.0 | 0.00 | 0.00 | 0.00 | 93 | 1023.0 |
| 20260503212128 | 57 | 122 | 4.0 | 6.0 | 0.00 | 0.00 | 0.00 | 93 | 1023.2 |
| 20260503211129 | 57 | 112 | 4.0 | 7.0 | 0.00 | 0.00 | 0.00 | 92 | 1023.3 |
| 20260503211029 | 57 | 123 | 4.0 | 7.0 | 0.00 | 0.00 | 0.00 | 92 | 1023.3 |
| 20260503210127 | 57 | 119 | 7.0 | 9.0 | 0.00 | 0.00 | 0.00 | 92 | 1023.2 |
| 20260503210028 | 57 | 120 | 3.0 | 6.0 | 0.00 | 0.00 | 0.00 | 91 | 1023.2 |
| 20260503205030 | 58 | 138 | 3.0 | 9.0 | 0.00 | 0.00 | 0.00 | 92 | 1023.1 |
| 20260503204028 | 58 | 112 | 4.0 | 7.0 | 0.00 | 0.00 | 0.00 | 92 | 1023.2 |
| 20260503203931 | 58 | 128 | 4.0 | 7.0 | 0.00 | 0.00 | 0.00 | 92 | 1023.2 |
| 20260503203028 | 58 | 116 | 2.0 | 4.0 | 0.00 | 0.00 | 0.00 | 92 | 1023.2 |
| 20260503202028 | 58 | 129 | 3.0 | 5.0 | 0.00 | 0.00 | 0.00 | 92 | 1023.3 |
| 20260503201929 | 58 | 123 | 3.0 | 7.0 | 0.00 | 0.00 | 0.00 | 92 | 1023.3 |
| 20260503201028 | 58 | 126 | 5.0 | 6.0 | 0.00 | 0.00 | 0.00 | 92 | 1023.1 |
| 20260503200126 | 58 | 128 | 4.0 | 7.0 | 0.00 | 0.00 | 0.00 | 92 | 1023.2 |
| 20260503195127 | 58 | 122 | 5.0 | 7.0 | 0.00 | 0.00 | 0.00 | 92 | 1023.1 |
| 20260503193128 | 58 | 125 | 4.0 | 6.0 | 0.00 | 0.00 | 0.00 | 92 | 1023.0 |
| 20260503193027 | 58 | 128 | 3.0 | 6.0 | 0.00 | 0.00 | 0.00 | 92 | 1023.1 |
| 20260503191028 | 59 | 135 | 3.0 | 6.0 | 0.00 | 0.00 | 0.00 | 92 | 1022.9 |
| 20260503185030 | 59 | 126 | 4.0 | 5.0 | 0.00 | 0.00 | 0.00 | 92 | 1022.8 |
| 20260503184028 | 59 | 118 | 2.0 | 4.0 | 0.00 | 0.00 | 0.00 | 92 | 1022.9 |
| 20260503183028 | 59 | 134 | 4.0 | 6.0 | 0.00 | 0.00 | 0.00 | 92 | 1022.7 |
| 20260503182928 | 59 | 126 | 3.0 | 5.0 | 0.00 | 0.00 | 0.00 | 92 | 1022.7 |
| 20260503181928 | 59 | 112 | 3.0 | 7.0 | 0.00 | 0.00 | 0.00 | 93 | 1022.5 |
| 20260503181028 | 59 | 126 | 3.0 | 7.0 | 0.00 | 0.00 | 0.00 | 93 | 1022.6 |
| 20260503180926 | 59 | 131 | 4.0 | 8.0 | 0.00 | 0.00 | 0.00 | 93 | 1022.6 |
| 20260503175927 | 59 | 132 | 3.0 | 6.0 | 0.00 | 0.01 | 0.00 | 93 | 1022.5 |
| 20260503174928 | 59 | 125 | 3.0 | 5.0 | 0.00 | 0.01 | 0.00 | 93 | 1022.6 |
| 20260503174828 | 59 | 133 | 3.0 | 4.0 | 0.00 | 0.01 | 0.00 | 93 | 1022.5 |
| 20260503173828 | 59 | 123 | 2.0 | 4.0 | 0.00 | 0.01 | 0.00 | 93 | 1022.3 |
| 20260503172828 | 59 | 133 | 3.0 | 8.0 | 0.00 | 0.01 | 0.00 | 93 | 1022.4 |
| 20260503172727 | 59 | 129 | 6.0 | 10.0 | 0.00 | 0.01 | 0.00 | 93 | 1022.4 |
| 20260503171729 | 59 | 135 | 1.0 | 3.0 | 0.00 | 0.01 | 0.00 | 93 | 1022.4 |
| 20260503170827 | 59 | 117 | 5.0 | 8.0 | 0.00 | 0.01 | 0.00 | 94 | 1022.5 |
| 20260503170730 | 59 | 124 | 3.0 | 5.0 | 0.00 | 0.01 | 0.00 | 94 | 1022.6 |
| 20260503170627 | 59 | 127 | 5.0 | 8.0 | 0.00 | 0.01 | 0.00 | 94 | 1022.6 |
| 20260503150429 | 57 | 127 | 4.0 | 6.0 | 0.00 | 0.01 | 0.00 | 92 | 1022.9 |
| 20260503130728 | 62 | 130 | 3.0 | 6.0 | 0.00 | 0.01 | 0.00 | 75 | 1022.9 |
| 20260503071128 | 63 | 134 | 4.0 | 7.0 | 0.00 | 0.01 | 0.00 | 89 | 1022.5 |
| 20260503070130 | 62 | 135 | 4.0 | 5.0 | 0.00 | 0.01 | 0.00 | 93 | 1022.3 |
| 20260503054429 | 56 | 135 | 2.0 | 3.0 | 0.00 | 0.01 | 0.00 | 96 | 1022.7 |
| 20260503053429 | 55 | 134 | 1.0 | 4.0 | 0.00 | 0.01 | 0.00 | 96 | 1022.6 |
| 20260503053327 | 55 | 135 | 2.0 | 3.0 | 0.00 | 0.01 | 0.00 | 96 | 1022.7 |
| 20260503052330 | 55 | 135 | 2.0 | 4.0 | 0.00 | 0.01 | 0.00 | 96 | 1022.6 |
| 20260503051428 | 55 | 135 | 5.0 | 7.0 | 0.00 | 0.01 | 0.00 | 96 | 1022.7 |
| 20260503050427 | 55 | 135 | 1.0 | 4.0 | 0.00 | 0.01 | 0.00 | 95 | 1022.7 |
| 20260503045430 | 55 | 135 | 3.0 | 4.0 | 0.00 | 0.01 | 0.00 | 95 | 1022.8 |
| 20260503045326 | 55 | 135 | 2.0 | 4.0 | 0.00 | 0.01 | 0.00 | 95 | 1022.7 |
| 20260503044327 | 54 | 135 | 1.0 | 2.0 | 0.00 | 0.01 | 0.00 | 95 | 1022.7 |
| 20260503043329 | 54 | 135 | 2.0 | 4.0 | 0.00 | 0.01 | 0.00 | 95 | 1022.9 |
| 20260503041327 | 54 | 135 | 2.0 | 4.0 | 0.00 | 0.01 | 0.00 | 95 | 1022.9 |
| 20260503040426 | 54 | 135 | 2.0 | 2.0 | 0.00 | 0.01 | 0.00 | 95 | 1023.0 |
| 20260503035428 | 55 | 135 | 1.0 | 3.0 | 0.00 | 0.01 | 0.00 | 95 | 1022.8 |
| 20260503034428 | 55 | 135 | 2.0 | 3.0 | 0.00 | 0.01 | 0.00 | 95 | 1022.8 |
| 20260503034327 | 55 | 135 | 1.0 | 2.0 | 0.00 | 0.01 | 0.00 | 95 | 1022.8 |
| 20260503033426 | 55 | 90 | 0.0 | 0.0 | 0.00 | 0.01 | 0.00 | 95 | 1022.8 |
| 20260503032427 | 55 | 116 | 0.0 | 2.0 | 0.00 | 0.01 | 0.00 | 94 | 1023.0 |
| 20260503030526 | 55 | 180 | 0.0 | 1.0 | 0.00 | 0.01 | 0.00 | 94 | 1023.4 |
| 20260503025528 | 55 | 180 | 1.0 | 2.0 | 0.00 | 0.01 | 0.00 | 94 | 1023.5 |
| 20260503024528 | 56 | 180 | 1.0 | 1.0 | 0.00 | 0.01 | 0.00 | 94 | 1023.4 |
| 20260503023528 | 56 | 180 | 0.0 | 0.0 | 0.00 | 0.01 | 0.00 | 94 | 1023.6 |
| 20260503022627 | 56 | 90 | 0.0 | 1.0 | 0.00 | 0.01 | 0.00 | 94 | 1023.5 |
| 20260503021627 | 56 | 90 | 0.0 | 0.0 | 0.00 | 0.01 | 0.00 | 94 | 1023.5 |
| 20260503020627 | 57 | 90 | 1.0 | 1.0 | 0.00 | 0.01 | 0.00 | 94 | 1023.8 |
| 20260503020527 | 57 | 90 | 1.0 | 1.0 | 0.00 | 0.01 | 0.00 | 94 | 1023.8 |
| 20260503020428 | 57 | 155 | 1.0 | 2.0 | 0.00 | 0.01 | 0.00 | 94 | 1023.9 |
| 20260503015427 | 56 | 180 | 0.0 | 1.0 | 0.00 | 0.01 | 0.00 | 93 | 1024.0 |
| 20260503014426 | 56 | 180 | 1.0 | 2.0 | 0.00 | 0.01 | 0.00 | 93 | 1024.0 |
| 20260503013429 | 57 | 180 | 0.0 | 1.0 | 0.00 | 0.01 | 0.00 | 93 | 1023.9 |
| 20260503012428 | 57 | 90 | 0.0 | 0.0 | 0.00 | 0.01 | 0.00 | 93 | 1023.9 |
| 20260503011428 | 57 | 90 | 0.0 | 1.0 | 0.00 | 0.01 | 0.00 | 93 | 1023.9 |
| 20260503010429 | 57 | 135 | 0.0 | 0.0 | 0.00 | 0.01 | 0.00 | 93 | 1024.0 |
| 20260503004527 | 57 | 90 | 0.0 | 2.0 | 0.00 | 0.01 | 0.00 | 93 | 1024.2 |
| 20260503003626 | 57 | 135 | 0.0 | 1.0 | 0.00 | 0.01 | 0.00 | 93 | 1024.3 |
| 20260503002629 | 57 | 112 | 0.0 | 1.0 | 0.00 | 0.01 | 0.00 | 93 | 1024.4 |
| 20260503000727 | 57 | 180 | 0.0 | 1.0 | 0.00 | 0.01 | 0.00 | 92 | 1024.6 |
| 20260502235826 | 57 | 95 | 0.0 | 2.0 | 0.00 | 0.01 | 0.00 | 92 | 1024.8 |
| 20260502235727 | 57 | 96 | 1.0 | 3.0 | 0.00 | 0.01 | 0.00 | 92 | 1024.7 |
| 20260502234729 | 58 | 107 | 1.0 | 2.0 | 0.00 | 0.01 | 0.00 | 92 | 1025.0 |